Weather History for Erie, PA

Change the Weather History Date:

Monday, June 24, 2013

  Actual Average Record
Temperature  
Mean Temperature 78 °F 70 °F  
Max Temperature 84 °F 78 °F 92 °F (1952)
Min Temperature 72 °F 61 °F 47 °F (1979)
Degree Days  
Heating Degree Days 0 1  
Month to date heating degree days 68 56  
Since 1 June heating degree days 68 56  
Since 1 July heating degree days 5880 6142  
Cooling Degree Days 13 5  
Month to date cooling degree days 80 87  
Year to date cooling degree days 165 126  
Since 1 June cooling degree days 80 87  
Growing Degree Days 28 (Base 50)    
Moisture  
Dew Point 64 °F    
Average Humidity 61    
Maximum Humidity 74    
Minimum Humidity 47    
Precipitation  
Precipitation 0.00 in 0.12 in 1.23 in (1957)
Month to date precipitation 5.27 3.01  
Year to date precipitation 22.50 18.07  
Snow  
Snow 0.00 in 0.00 in - ()
Month to date snowfall 0.0 0.0  
Since 1 June snowfall 0.0 0.0  
Since 1 July snowfall 105.5 100.9  
Snow Depth 0.00 in    
Sea Level Pressure  
Sea Level Pressure 30.04 in    
Wind  
Wind Speed 7 mph (SW)    
Max Wind Speed 17 mph    
Max Gust Speed 25 mph    
Visibility 10 miles    
Events      
T = Trace of Precipitation, MM = Missing Value Source: NWS Daily Summary

Daily Weather History Graph

Daily Weather History Graph

Search for Another Location

Airport:

Trip Planner

Search our weather history database for the weather conditions in past years. The results will help you decide how hot, cold, wet, or windy it might be!

Date:

Astronomy

Jun. 24, 2013 Rise Set
Actual Time 5:45 AM EDT 9:00 PM EDT
Civil Twilight 5:11 AM EDT 9:35 PM EDT
Nautical Twilight 4:26 AM EDT 10:19 PM EDT
Astronomical Twilight 3:32 AM EDT 11:13 PM EDT
Moon 9:59 PM EDT (6/24) 7:13 AM EDT (6/24)
Length of Visible Light 16h 23m
Length of Day
15h 14m
Full, 98% of the Moon is Illuminated
Jun 24
Full
Jun 30
Last Quarter
Jul 8
New
Jul 15
First Quarter
Jul 22
Full

Hourly Weather History & Observations

Time (EDT) Temp. Heat Index Dew Point Humidity Pressure Visibility Wind Dir Wind Speed Gust Speed Precip Events Conditions
12:51 AM 79.0 °F - 64.0 °F 60% 30.05 in 10.0 mi SSW 9.2 mph - N/A   Mostly Cloudy
1:51 AM 78.1 °F - 64.0 °F 62% 30.04 in 10.0 mi SSW 6.9 mph - N/A   Clear
2:51 AM 77.0 °F - 64.0 °F 64% 30.05 in 10.0 mi SSW 8.1 mph - N/A   Clear
3:51 AM 75.0 °F - 64.0 °F 69% 30.05 in 10.0 mi SSW 6.9 mph - N/A   Clear
4:51 AM 73.9 °F - 64.0 °F 71% 30.06 in 10.0 mi SW 5.8 mph - N/A   Clear
5:51 AM 73.0 °F - 64.0 °F 73% 30.07 in 10.0 mi SW 5.8 mph - N/A   Partly Cloudy
6:51 AM 73.0 °F - 63.0 °F 71% 30.07 in 8.0 mi South 6.9 mph - N/A   Clear
7:51 AM 73.0 °F - 63.0 °F 71% 30.08 in 10.0 mi SSW 8.1 mph - N/A   Clear
8:51 AM 77.0 °F - 63.0 °F 62% 30.08 in 10.0 mi SW 9.2 mph - N/A   Clear
9:51 AM 79.0 °F - 64.0 °F 60% 30.08 in 9.0 mi SSW 11.5 mph - N/A   Clear
10:51 AM 82.0 °F 83.4 °F 64.0 °F 54% 30.09 in 10.0 mi SW 6.9 mph - N/A   Clear
11:51 AM 81.0 °F 82.5 °F 64.0 °F 56% 30.09 in 10.0 mi West 11.5 mph 19.6 mph N/A   Clear
12:51 PM 80.1 °F 82.1 °F 66.0 °F 62% 30.10 in 10.0 mi West 13.8 mph 20.7 mph N/A   Clear
1:51 PM 82.0 °F 83.8 °F 64.9 °F 56% 30.08 in 10.0 mi West 9.2 mph - N/A   Clear
2:51 PM 82.0 °F 83.4 °F 64.0 °F 54% 30.05 in 10.0 mi West 9.2 mph 17.3 mph N/A   Clear
3:51 PM 82.9 °F 84.6 °F 64.9 °F 54% 30.02 in 10.0 mi Variable 6.9 mph - N/A   Clear
4:51 PM 82.9 °F 84.0 °F 63.0 °F 51% 29.99 in 10.0 mi West 9.2 mph - N/A   Clear
5:51 PM 82.9 °F 83.3 °F 61.0 °F 47% 29.98 in 10.0 mi WNW 4.6 mph - N/A   Clear
6:51 PM 82.0 °F 83.1 °F 63.0 °F 52% 29.96 in 10.0 mi SW 4.6 mph - N/A   Clear
7:51 PM 82.0 °F 83.1 °F 63.0 °F 52% 29.96 in 10.0 mi SW 3.5 mph - N/A   Clear
8:51 PM 79.0 °F - 64.0 °F 60% 29.97 in 10.0 mi SSW 3.5 mph - N/A   Clear
9:51 PM 78.1 °F - 66.0 °F 66% 29.98 in 10.0 mi South 3.5 mph - N/A   Clear
10:51 PM 75.9 °F - 66.0 °F 71% 29.98 in 9.0 mi South 3.5 mph - N/A   Clear
11:51 PM 75.9 °F - 64.9 °F 69% 29.97 in 10.0 mi South 6.9 mph - N/A   Partly Cloudy